Change the Weather History Date:

Sunday, July 21, 2013

  Actual Average Record
Temperature  
Mean Temperature 76 °F -  
Max Temperature 84 °F 92 °F 108 °F (1974)
Min Temperature 69 °F 68 °F 54 °F (1970)
Cooling Degree Days 12    
Growing Degree Days 26 (Base 50)    
Moisture  
Dew Point 70 °F    
Average Humidity 83    
Maximum Humidity 94    
Minimum Humidity 65    
Precipitation  
Precipitation 0.14 in - - ()
Sea Level Pressure  
Sea Level Pressure 29.91 in    
Wind  
Wind Speed 5 mph (South)    
Max Wind Speed 10 mph    
Max Gust Speed -    
Visibility 9 miles    
Events Rain , Thunderstorm    
Averages and records for this station are not official NWS values.
T = Trace of Precipitation, MM = Missing Value Source: NWS Daily Summary

Daily Weather History Graph

Daily Weather History Graph

Search for Another Location

Airport or City:

Trip Planner

Search our weather history database for the weather conditions in past years. The results will help you decide how hot, cold, wet, or windy it might be!

Date:

Astronomy

Jul. 21, 2013 Rise Set
Actual Time 6:17 AM CDT 8:38 PM CDT
Civil Twilight 5:48 AM CDT 9:08 PM CDT
Nautical Twilight 5:11 AM CDT 9:44 PM CDT
Astronomical Twilight 4:31 AM CDT 10:24 PM CDT
Moon 7:38 PM CDT (7/21) 5:04 AM CDT (7/21)
Length of Visible Light 15h 20m
Length of Day
14h 20m
Waxing Gibbous, 98% of the Moon is Illuminated
Jul 21
Waxing Gibbous
Jul 22
Full
Jul 29
Last Quarter
Aug 6
New
Aug 14
First Quarter

Hourly Weather History & Observations

Time (CDT) Temp. Heat Index Dew Point Humidity Pressure Visibility Wind Dir Wind Speed Gust Speed Precip Events Conditions
12:15 AM 71.6 °F - 69.8 °F 94% 29.95 in 10.0 mi South 5.8 mph - 0.00 in Rain , Thunderstorm Light Rain
12:39 AM 71.6 °F - 69.8 °F 94% 29.95 in 9.0 mi SE 5.8 mph - 0.00 in Rain Light Rain
12:52 AM 72.0 °F - 69.1 °F 91% 29.95 in 10.0 mi WSW 8.1 mph - 0.00 in Rain Light Rain
1:00 AM 71.6 °F - 69.8 °F 94% 29.99 in 8.0 mi West 10.4 mph - 0.01 in Rain Light Rain
1:48 AM 71.6 °F - 68.0 °F 88% 29.97 in 7.0 mi SSW 6.9 mph - 0.02 in Rain , Thunderstorm Light Rain
1:52 AM 71.1 °F - 68.0 °F 90% 29.94 in 7.0 mi SSW 6.9 mph - 0.02 in Rain , Thunderstorm Light Rain
2:03 AM 69.8 °F - 68.0 °F 94% 29.96 in 6.0 mi South 3.5 mph - 0.00 in Rain Light Rain
2:52 AM 70.0 °F - 68.0 °F 93% 29.91 in 9.0 mi South 5.8 mph - 0.02 in Rain Light Rain
3:52 AM 70.0 °F - 66.9 °F 90% 29.88 in 10.0 mi South 5.8 mph - 0.00 in Rain Light Rain
4:52 AM 70.0 °F - 68.0 °F 93% 29.90 in 10.0 mi Calm Calm - 0.00 in Rain Light Rain
5:52 AM 70.0 °F - 68.0 °F 93% 29.90 in 10.0 mi SSW 5.8 mph - 0.00 in Rain Light Rain
6:52 AM 71.1 °F - 68.0 °F 90% 29.90 in 10.0 mi SSW 6.9 mph - 0.00 in Rain Light Rain
7:52 AM 70.0 °F - 68.0 °F 93% 29.91 in 6.0 mi WSW 6.9 mph - N/A Rain Light Rain
8:49 AM 69.8 °F - 68.0 °F 94% 29.95 in 2.5 mi SSW 3.5 mph - N/A Rain Rain
8:52 AM 70.0 °F - 68.0 °F 93% 29.93 in 2.5 mi SW 3.5 mph - N/A Rain Rain
9:14 AM 69.8 °F - 66.2 °F 88% 29.96 in 3.0 mi Calm Calm - 0.04 in Rain Rain
9:26 AM 69.8 °F - 66.2 °F 88% 29.95 in 2.5 mi Calm Calm - 0.08 in Rain Rain
9:52 AM 70.0 °F - 68.0 °F 93% 29.93 in 5.0 mi Calm Calm - 0.10 in Rain Light Rain
10:08 AM 71.6 °F - 68.0 °F 88% 29.95 in 9.0 mi Calm Calm - 0.00 in Rain Light Rain
10:42 AM 73.4 °F - 69.8 °F 88% 29.94 in 10.0 mi SSW 6.9 mph - 0.00 in   Overcast
10:52 AM 73.0 °F - 69.1 °F 87% 29.92 in 10.0 mi SSW 4.6 mph - 0.00 in   Mostly Cloudy
11:05 AM 73.4 °F - 69.8 °F 88% 29.94 in 10.0 mi Calm Calm - N/A   Mostly Cloudy
11:20 AM 73.4 °F - 69.8 °F 88% 29.94 in 10.0 mi South 3.5 mph - N/A   Mostly Cloudy
11:32 AM 75.2 °F - 69.8 °F 83% 29.95 in 10.0 mi Calm Calm - N/A   Mostly Cloudy
11:39 AM 75.2 °F - 69.8 °F 83% 29.95 in 10.0 mi South 4.6 mph - N/A   Mostly Cloudy
11:49 AM 75.2 °F - 69.8 °F 83% 29.95 in 10.0 mi SE 3.5 mph - N/A   Overcast
11:52 AM 75.0 °F - 70.0 °F 84% 29.92 in 10.0 mi Variable 4.6 mph - N/A   Overcast
12:21 PM 77.0 °F - 71.6 °F 83% 29.93 in 10.0 mi SE 4.6 mph - N/A   Mostly Cloudy
12:35 PM 77.0 °F - 71.6 °F 83% 29.93 in 10.0 mi ESE 4.6 mph - N/A   Mostly Cloudy
12:52 PM 77.0 °F - 71.1 °F 82% 29.90 in 10.0 mi SE 3.5 mph - N/A   Overcast
1:52 PM 80.1 °F 83.6 °F 71.1 °F 74% 29.88 in 10.0 mi South 9.2 mph - N/A   Overcast
2:52 PM 82.0 °F 86.3 °F 71.1 °F 69% 29.85 in 10.0 mi South 8.1 mph - N/A   Overcast
3:31 PM 82.4 °F 87.2 °F 71.6 °F 70% 29.87 in 10.0 mi SSW 6.9 mph - N/A   Mostly Cloudy
3:52 PM 82.9 °F 87.5 °F 71.1 °F 67% 29.84 in 10.0 mi South 4.6 mph - N/A   Scattered Clouds
4:28 PM 82.4 °F 86.3 °F 69.8 °F 66% 29.87 in 10.0 mi SSW 6.9 mph - N/A   Mostly Cloudy
4:52 PM 82.9 °F 87.0 °F 70.0 °F 65% 29.84 in 10.0 mi Variable 4.6 mph - N/A   Overcast
4:59 PM 82.4 °F 86.3 °F 69.8 °F 66% 29.87 in 10.0 mi Calm Calm - N/A   Overcast
5:15 PM 82.4 °F 87.2 °F 71.6 °F 70% 29.87 in 10.0 mi South 3.5 mph - N/A   Overcast
5:22 PM 82.4 °F 87.2 °F 71.6 °F 70% 29.87 in 10.0 mi South 4.6 mph - N/A   Overcast
5:52 PM 82.9 °F 87.5 °F 71.1 °F 67% 29.83 in 10.0 mi South 4.6 mph - N/A   Mostly Cloudy
6:52 PM 84.0 °F 89.0 °F 71.1 °F 65% 29.82 in 10.0 mi Variable 4.6 mph - N/A   Clear
7:52 PM 82.0 °F 86.7 °F 72.0 °F 71% 29.83 in 10.0 mi South 3.5 mph - N/A   Clear
8:52 PM 78.1 °F - 73.0 °F 84% 29.83 in 10.0 mi Calm Calm - N/A   Clear
9:52 PM 79.0 °F - 73.9 °F 84% 29.84 in 10.0 mi Calm Calm - N/A   Overcast
10:52 PM 79.0 °F - 73.0 °F 82% 29.84 in 10.0 mi Calm Calm - N/A   Overcast
11:52 PM 78.1 °F - 73.0 °F 84% 29.84 in 10.0 mi Calm Calm - N/A   Mostly Cloudy